TimePST,TemperatureF,Dew PointF,Humidity,Sea Level PressureIn,VisibilityMPH,Wind Direction,Wind SpeedMPH,Gust SpeedMPH,PrecipitationIn,Events,Conditions,WindDirDegrees,DateUTC
12:15 AM,41.0,39.2,93,30.30,10.0,North,9.2,-,N/A,,Clear,350,2014-01-21 08:15:00
12:35 AM,41.0,39.2,93,30.30,10.0,North,9.2,-,N/A,,Clear,350,2014-01-21 08:35:00
12:55 AM,41.0,39.2,93,30.29,10.0,North,4.6,-,N/A,,Partly Cloudy,360,2014-01-21 08:55:00
1:15 AM,41.0,39.2,93,30.29,10.0,North,3.5,-,N/A,,Partly Cloudy,10,2014-01-21 09:15:00
1:40 AM,41.0,39.2,93,30.29,10.0,Calm,Calm,-,N/A,,Scattered Clouds,0,2014-01-21 09:40:00
1:55 AM,41.0,39.2,93,30.29,10.0,North,3.5,-,N/A,,Scattered Clouds,10,2014-01-21 09:55:00
2:15 AM,41.0,39.2,93,30.28,10.0,North,3.5,-,N/A,,Partly Cloudy,10,2014-01-21 10:15:00
2:35 AM,41.0,39.2,93,30.28,10.0,North,4.6,-,N/A,,Clear,360,2014-01-21 10:35:00
2:55 AM,41.0,39.2,93,30.27,10.0,North,4.6,-,N/A,,Clear,360,2014-01-21 10:55:00
3:15 AM,41.0,35.6,81,30.26,10.0,NNE,8.1,-,N/A,,Clear,30,2014-01-21 11:15:00
3:35 AM,41.0,33.8,76,30.26,10.0,NE,4.6,-,N/A,,Clear,40,2014-01-21 11:35:00
3:55 AM,41.0,32.0,70,30.27,10.0,NE,4.6,-,N/A,,Clear,50,2014-01-21 11:55:00
4:15 AM,41.0,32.0,70,30.27,10.0,Calm,Calm,-,N/A,,Clear,0,2014-01-21 12:15:00
4:35 AM,39.2,32.0,75,30.27,10.0,Calm,Calm,-,N/A,,Clear,0,2014-01-21 12:35:00
4:55 AM,39.2,39.2,100,30.28,8.0,North,6.9,-,N/A,,Partly Cloudy,350,2014-01-21 12:55:00
5:15 AM,39.2,37.4,93,30.27,10.0,NNW,5.8,-,N/A,,Clear,340,2014-01-21 13:15:00
5:35 AM,39.2,39.2,100,30.27,10.0,Calm,Calm,-,N/A,,Clear,0,2014-01-21 13:35:00
5:55 AM,39.2,37.4,93,30.27,10.0,NNE,3.5,-,N/A,,Clear,30,2014-01-21 13:55:00
6:15 AM,41.0,39.2,93,30.27,10.0,Calm,Calm,-,N/A,,Clear,0,2014-01-21 14:15:00
6:35 AM,41.0,39.2,93,30.25,10.0,North,3.5,-,N/A,,Clear,360,2014-01-21 14:35:00
6:55 AM,41.0,37.4,87,30.26,10.0,Calm,Calm,-,N/A,,Clear,0,2014-01-21 14:55:00
7:15 AM,41.0,35.6,81,30.26,10.0,Calm,Calm,-,N/A,,Clear,0,2014-01-21 15:15:00
7:40 AM,41.0,35.6,81,30.27,10.0,Calm,Calm,-,N/A,,Clear,0,2014-01-21 15:40:00
7:55 AM,39.2,35.6,87,30.27,10.0,Calm,Calm,-,N/A,,Clear,0,2014-01-21 15:55:00
8:15 AM,37.4,35.6,93,30.27,10.0,Calm,Calm,-,N/A,,Partly Cloudy,0,2014-01-21 16:15:00
8:35 AM,39.2,39.2,100,30.26,9.0,Calm,Calm,-,N/A,,Scattered Clouds,0,2014-01-21 16:35:00
8:55 AM,39.2,35.6,87,30.26,10.0,North,4.6,-,N/A,,Clear,10,2014-01-21 16:55:00
9:15 AM,39.2,35.6,87,30.28,10.0,Calm,Calm,-,N/A,,Clear,0,2014-01-21 17:15:00
9:35 AM,41.0,33.8,76,30.26,10.0,ENE,4.6,-,N/A,,Clear,60,2014-01-21 17:35:00
9:55 AM,41.0,32.0,70,30.27,10.0,Calm,Calm,-,N/A,,Clear,0,2014-01-21 17:55:00
10:15 AM,41.0,32.0,70,30.27,10.0,ENE,5.8,-,N/A,,Clear,60,2014-01-21 18:15:00
10:35 AM,41.0,32.0,70,30.29,10.0,Calm,Calm,-,N/A,,Clear,0,2014-01-21 18:35:00
10:55 AM,41.0,32.0,70,30.28,10.0,North,-9999.0,-,N/A,,Clear,0,2014-01-21 18:55:00
11:15 AM,41.0,32.0,70,30.28,10.0,Calm,Calm,-,N/A,,Clear,0,2014-01-21 19:15:00
11:35 AM,41.0,32.0,70,30.27,10.0,Calm,Calm,-,N/A,,Clear,0,2014-01-21 19:35:00
11:55 AM,41.0,32.0,70,30.28,10.0,Calm,Calm,-,N/A,,Clear,0,2014-01-21 19:55:00
12:15 PM,41.0,33.8,76,30.28,10.0,Calm,Calm,-,N/A,,Clear,0,2014-01-21 20:15:00
12:35 PM,41.0,33.8,76,30.26,10.0,Calm,Calm,-,N/A,,Clear,0,2014-01-21 20:35:00
12:55 PM,42.8,33.8,70,30.25,10.0,Calm,Calm,-,N/A,,Clear,0,2014-01-21 20:55:00
1:15 PM,42.8,33.8,70,30.24,10.0,Calm,Calm,-,N/A,,Clear,0,2014-01-21 21:15:00
1:35 PM,44.6,35.6,71,30.24,10.0,Calm,Calm,-,N/A,,Clear,0,2014-01-21 21:35:00
1:55 PM,44.6,35.6,71,30.24,10.0,Calm,Calm,-,N/A,,Clear,0,2014-01-21 21:55:00
2:15 PM,44.6,35.6,71,30.24,10.0,Calm,Calm,-,N/A,,Clear,0,2014-01-21 22:15:00
2:35 PM,44.6,35.6,71,30.24,10.0,Calm,Calm,-,N/A,,Clear,0,2014-01-21 22:35:00
2:55 PM,42.8,35.6,76,30.24,10.0,Calm,Calm,-,N/A,,Clear,0,2014-01-21 22:55:00
3:15 PM,44.6,37.4,76,30.24,10.0,Calm,Calm,-,N/A,,Clear,0,2014-01-21 23:15:00
3:35 PM,42.8,35.6,76,30.21,10.0,Calm,Calm,-,N/A,,Clear,0,2014-01-21 23:35:00
3:55 PM,42.8,37.4,81,30.23,10.0,Calm,Calm,-,N/A,,Clear,0,2014-01-21 23:55:00
4:15 PM,42.8,37.4,81,30.23,10.0,Calm,Calm,-,N/A,,Clear,0,2014-01-22 00:15:00
4:35 PM,42.8,37.4,81,30.24,10.0,WNW,3.5,-,N/A,,Clear,300,2014-01-22 00:35:00
4:55 PM,42.8,37.4,81,30.26,10.0,Calm,Calm,-,N/A,,Clear,0,2014-01-22 00:55:00
5:15 PM,42.8,39.2,87,30.26,10.0,Calm,Calm,-,N/A,,Clear,0,2014-01-22 01:15:00
5:35 PM,42.8,39.2,87,30.25,10.0,Calm,Calm,-,N/A,,Clear,0,2014-01-22 01:35:00
5:55 PM,41.0,39.2,93,30.26,10.0,Calm,Calm,-,N/A,,Clear,0,2014-01-22 01:55:00
6:15 PM,41.0,39.2,93,30.28,10.0,Calm,Calm,-,N/A,,Clear,0,2014-01-22 02:15:00
6:35 PM,41.0,39.2,93,30.28,10.0,Calm,Calm,-,N/A,,Clear,0,2014-01-22 02:35:00
6:55 PM,41.0,39.2,93,30.26,10.0,Calm,Calm,-,N/A,,Clear,0,2014-01-22 02:55:00
7:15 PM,42.8,39.2,87,30.25,10.0,SE,4.6,-,N/A,,Clear,130,2014-01-22 03:15:00
7:35 PM,41.0,39.2,93,30.25,10.0,SSW,9.2,-,N/A,,Clear,210,2014-01-22 03:35:00
7:55 PM,42.8,39.2,87,30.26,10.0,Calm,Calm,-,N/A,,Clear,0,2014-01-22 03:55:00
8:15 PM,42.8,39.2,87,30.26,10.0,SSW,10.4,-,N/A,,Clear,200,2014-01-22 04:15:00
8:35 PM,42.8,39.2,87,30.27,10.0,SSW,13.8,17.3,N/A,,Clear,200,2014-01-22 04:35:00
8:50 PM,42.8,39.2,87,30.28,10.0,SSW,11.5,-,N/A,,Partly Cloudy,200,2014-01-22 04:50:00
9:15 PM,42.8,39.2,87,30.29,9.0,SSW,17.3,21.9,N/A,,Partly Cloudy,200,2014-01-22 05:15:00
9:35 PM,42.8,39.2,87,30.28,9.0,South,8.1,17.3,N/A,,Scattered Clouds,170,2014-01-22 05:35:00
9:55 PM,42.8,39.2,87,30.28,10.0,South,9.2,-,N/A,,Partly Cloudy,170,2014-01-22 05:55:00
10:15 PM,41.0,39.2,93,30.29,9.0,South,9.2,-,N/A,,Clear,180,2014-01-22 06:15:00
10:35 PM,42.8,39.2,87,30.29,10.0,South,9.2,-,N/A,,Clear,190,2014-01-22 06:35:00
10:55 PM,42.8,39.2,87,30.31,10.0,SSW,5.8,-,N/A,,Partly Cloudy,200,2014-01-22 06:55:00
11:15 PM,42.8,39.2,87,30.31,10.0,SSW,6.9,-,N/A,,Partly Cloudy,210,2014-01-22 07:15:00
11:35 PM,42.8,39.2,87,30.31,10.0,South,4.6,-,N/A,,Partly Cloudy,180,2014-01-22 07:35:00
11:55 PM,42.8,39.2,87,30.31,10.0,South,5.8,-,N/A,,Partly Cloudy,190,2014-01-22 07:55:00